Temperature
27 28 28 27 26 25 24 23 23 22 22 21 19 18 18 17 16 16 16 15 15 14 13 13 12 12 12 11 11 11 11 10 10 10 10 10 10 9 9 9 10 10 10 11
26 27 27 26 24 23 23 22 22 21 21 21 19 18 17 17 16 16 15 15 14 13 13 12 12 12 11 11 11 11 11 10 10 10 10 10 10 9 9 9 9 9 9 10
25 27 26 23 21 21 21 21 21 20 20 19 18 17 17 16 16 16 15 14 13 13 12 12 11 11 11 11 10 10 10 10 10 10 10 10 10 10 9 9 9 9 9 9
25 25 23 20 21 21 20 21 21 20 18 18 17 16 16 16 16 14 14 13 13 12 12 11 11 11 10 10 10 10 9 9 9 9 9 9 9 9 9 9 9 9 9 9
24 24 23 21 21 20 19 19 19 18 17 17 16 15 16 15 14 13 13 13 12 12 11 11 11 10 10 10 9 9 9 8 8 8 9 9 9 9 9 9 9 8 9 9
24 22 22 20 21 20 20 19 18 17 16 16 15 15 15 14 13 13 12 12 12 11 11 11 10 10 9 9 8 8 8 8 8 8 8 8 8 8 8 8 8 8 8 9
23 22 22 20 20 20 18 17 16 16 15 15 14 14 13 13 13 12 12 12 11 11 11 10 10 9 9 8 8 7 7 7 7 7 7 7 7 7 8 8 8 8 8 8
22 21 21 20 20 18 17 16 16 15 14 14 14 13 13 13 12 12 12 11 11 11 10 10 9 9 8 7 7 6 6 6 6 6 6 7 7 7 7 7 7 7 8 8
21 21 21 20 18 17 16 16 15 14 14 13 13 13 13 12 12 12 11 11 11 10 9 8 8 7 6 6 5 5 5 5 5 5 6 6 6 6 7 7 7 7 8 8
21 21 20 18 17 16 15 15 14 14 13 13 13 13 12 12 12 11 11 10 9 8 7 7 6 5 5 4 4 4 4 5 5 5 5 6 6 6 6 7 7 7 8 8
20 20 18 18 16 15 15 14 14 13 13 13 12 12 12 12 11 10 9 8 7 6 5 5 4 4 4 4 3 4 4 4 5 5 5 5 6 6 6 7 7 7 7 8
18 18 17 16 15 15 14 14 13 13 13 12 12 12 11 11 10 9 8 7 6 5 4 4 4 3 3 3 3 3 4 4 4 5 5 5 6 6 6 7 7 7 7 8
18 17 16 15 15 14 14 13 13 13 12 12 12 11 10 9 8 7 6 5 4 4 4 4 3 3 3 3 4 4 4 4 4 5 5 5 6 6 6 7 7 7 7 8
17 16 15 15 14 14 13 13 12 12 12 11 11 10 9 8 7 6 5 4 4 4 4 4 4 4 4 4 4 4 4 4 5 5 5 6 6 6 6 7 7 7 7 7
16 15 15 14 14 13 13 12 12 12 11 11 10 9 8 7 6 5 5 4 4 4 4 4 4 4 4 4 4 4 5 5 5 5 5 6 6 6 7 7 7 7 7 7
15 15 15 14 13 13 12 12 11 11 10 10 9 8 7 6 5 5 4 4 4 4 5 5 5 5 5 5 5 5 5 5 5 5 6 6 6 7 7 7 7 7 7 7
15 15 14 13 13 12 12 11 11 10 10 9 8 7 6 5 5 5 5 5 5 5 5 5 5 5 5 5 5 5 5 6 6 6 6 6 7 7 7 7 7 7 7 7
15 14 14 13 12 12 11 11 10 10 9 8 7 6 6 5 5 4 5 5 5 5 5 5 5 6 6 6 6 6 6 6 6 7 7 7 7 7 7 8 8 7 7 7
14 14 13 12 12 11 10 10 9 9 8 8 7 6 5 5 5 5 5 5 5 5 6 6 6 6 6 6 6 7 7 7 7 7 7 7 7 7 8 8 8 7 7 7
14 13 13 12 11 10 10 9 9 9 8 7 6 6 5 5 5 5 5 5 6 6 6 6 6 6 7 7 7 7 7 8 8 8 8 8 8 8 8 8 8 7 7 7
14 13 12 11 11 10 10 9 9 8 8 7 6 6 5 5 5 5 5 5 6 6 6 7 7 7 7 7 7 8 8 8 8 8 8 8 8 8 8 8 8 8 7 7
13 12 11 10 10 10 9 9 9 8 7 7 6 6 5 5 5 6 6 6 6 6 7 7 7 7 7 8 8 8 8 8 8 8 8 8 8 8 8 8 8 8 8 8
12 11 10 10 10 9 9 9 9 8 7 7 6 6 5 5 5 5 5 6 6 7 7 7 7 8 8 8 8 8 8 8 8 8 8 8 8 8 8 8 8 8 8 8
11 11 10 10 9 9 9 9 8 8 7 7 6 6 5 5 5 6 6 6 7 7 8 8 8 8 8 8 8 8 9 9 9 8 8 8 8 8 8 8 8 9 9 9
11 10 10 10 10 10 9 9 8 8 7 7 6 6 5 5 5 5 6 6 7 8 8 8 8 8 9 9 9 9 9 9 9 9 9 9 9 9 9 9 9 9 10 10
11 11 11 10 10 9 9 8 8 8 7 6 6 5 5 5 5 6 6 7 7 8 8 8 8 9 9 9 9 9 9 10 10 10 10 10 10 10 10 10 10 10 11 11
12 12 11 11 10 9 8 8 8 8 7 6 5 5 5 5 5 5 6 6 7 8 8 8 8 9 9 9 9 10 10 10 10 10 11 11 11 11 11 11 11 11 12 12
Wind_Speed
17 17 15 10 8 9 9 10 11 15 15 10 5 9 12 15 17 20 22 20 16 13 12 11 11 10 11 11 10 11 11 11 11 11 11 11 11 11 11 12 13 11 10 9
17 16 9 4 9 9 9 10 13 16 17 10 9 12 15 18 21 25 23 18 16 16 15 14 13 13 12 11 11 10 11 12 11 11 11 11 11 12 12 12 12 11 11 11
14 14 9 4 8 9 9 12 14 18 18 15 15 16 18 21 24 23 18 20 20 19 15 13 13 12 12 12 11 11 12 12 12 11 11 11 14 13 12 11 11 11 11 11
12 13 7 6 5 7 11 13 16 15 15 17 19 21 20 19 18 20 23 23 21 19 19 18 16 16 13 15 13 13 13 14 13 12 12 11 11 11 10 9 9 10 10 11
8 13 5 5 6 10 14 18 12 15 19 22 24 25 22 19 22 23 23 20 18 21 22 19 18 17 15 15 15 16 16 15 15 14 13 12 12 10 9 8 9 9 10 11
9 12 11 6 9 13 15 12 15 21 23 24 26 24 21 23 25 24 22 20 19 22 21 18 16 16 16 18 17 18 17 16 15 15 15 14 12 11 11 9 9 11 11 11
10 13 4 7 13 16 12 13 21 22 23 25 24 22 24 27 26 23 22 22 20 19 17 14 13 13 15 17 17 17 17 17 16 15 15 15 13 12 11 11 11 11 11 11
9 9 6 12 13 12 13 16 20 22 23 24 25 26 26 26 24 23 23 24 23 17 16 13 12 13 15 16 17 17 17 18 17 15 16 16 12 11 10 10 10 11 11 12
6 8 9 11 12 13 16 19 20 22 24 25 27 28 28 26 24 24 24 22 21 19 17 15 14 13 17 17 17 18 19 19 17 17 15 14 13 12 10 9 9 10 10 10
7 9 12 13 15 17 19 20 22 23 24 25 27 28 28 26 24 23 23 22 21 22 22 20 18 18 17 18 17 18 19 18 16 15 15 13 11 10 10 9 9 10 10 8
11 11 13 13 17 19 20 21 22 23 24 25 27 28 27 24 24 23 23 22 22 23 23 24 21 20 20 18 18 18 18 16 15 14 13 12 11 10 11 9 9 8 6 4
8 11 13 17 18 19 21 22 23 24 25 26 25 26 27 25 24 23 24 24 24 24 24 24 23 22 20 18 16 16 15 14 12 10 10 10 10 10 12 12 9 8 6 3
8 13 14 17 18 19 20 23 23 24 24 25 25 25 25 25 24 25 25 25 25 25 25 23 22 21 19 16 15 14 14 13 10 10 9 9 9 8 7 7 7 7 6 6
9 11 15 15 17 19 21 23 23 23 23 24 24 25 25 25 25 26 25 25 25 25 24 21 20 19 16 14 13 13 13 13 11 9 8 8 7 7 7 7 7 6 5 8
10 12 14 16 17 19 20 21 23 23 24 24 24 24 25 25 25 26 25 24 24 23 22 20 19 17 14 12 11 11 9 7 7 6 6 6 6 6 6 6 5 5 7 6
12 12 14 16 18 19 21 22 22 23 24 24 24 25 25 24 24 24 24 24 24 23 21 19 17 15 13 11 9 7 6 4 3 2 3 4 5 5 5 5 5 5 7 8
11 13 15 16 18 19 20 21 21 22 23 24 24 25 24 24 23 24 24 24 22 20 18 17 16 15 12 10 9 6 4 1 2 2 2 2 3 3 4 4 5 6 6 9
10 11 12 14 16 18 19 20 20 21 21 22 23 24 23 23 23 24 24 23 21 19 18 17 17 15 11 11 9 6 4 2 1 2 2 2 3 3 3 4 5 8 8 9
10 11 12 14 15 16 17 18 19 19 20 20 22 22 22 21 21 22 22 21 19 19 19 18 17 13 11 12 11 5 5 4 4 4 4 4 4 3 3 4 6 7 9 9
9 10 12 13 15 15 16 17 18 17 18 19 20 21 21 21 20 21 21 18 15 16 18 17 15 12 11 12 13 6 5 5 4 4 4 4 4 4 3 4 6 8 8 8
9 11 12 13 14 15 15 16 16 17 18 18 18 19 20 20 19 18 17 15 18 20 19 16 11 11 11 13 11 7 6 6 5 4 4 4 4 4 4 5 6 7 8 8
8 9 11 12 13 14 14 14 15 16 17 17 18 18 19 19 19 18 16 14 17 21 16 11 11 13 15 14 8 7 6 5 4 3 3 3 3 3 4 5 5 6 7 8
6 8 9 11 12 13 13 13 15 15 16 16 16 17 17 15 12 13 15 15 15 20 14 11 15 17 17 10 7 6 6 5 4 3 3 3 2 3 4 5 5 6 7 8
6 7 8 9 11 12 12 13 13 12 14 14 15 15 15 13 13 12 12 16 20 19 13 14 18 18 14 7 7 6 5 5 4 3 2 1 2 2 3 5 6 7 7 8
6 7 8 8 9 9 10 11 12 12 14 13 16 16 14 11 11 13 14 16 19 18 14 15 18 18 11 9 8 7 6 5 4 3 2 2 2 3 4 5 6 7 7 7
6 7 6 6 6 6 8 9 10 10 11 13 13 13 13 13 13 13 13 16 19 18 15 13 13 14 12 11 10 9 8 6 5 3 2 1 2 3 3 4 7 7 7 7
7 7 5 4 4 6 7 8 9 10 10 12 12 13 13 13 13 14 15 14 14 15 14 14 13 12 12 13 12 11 10 9 8 6 4 2 1 2 3 4 4 5 6 7
Wind_Direction
316 312 317 330 0 6 357 345 327 329 325 323 327 330 329 326 325 323 320 315 318 325 326 320 313 303 298 293 288 283 277 270 263 258 256 258 262 265 269 271 275 277 281 286
309 312 320 17 35 15 360 347 331 321 317 340 340 334 329 327 324 318 314 322 329 324 320 315 311 306 301 296 291 285 280 277 271 264 261 260 258 258 260 262 265 267 268 272
308 310 298 57 33 10 347 336 327 317 326 345 339 331 327 326 316 313 327 327 321 317 313 307 304 299 295 297 297 296 292 288 281 274 269 264 267 264 257 256 257 259 262 261
304 318 335 82 47 2 333 324 329 336 352 343 330 326 323 313 318 334 327 319 315 312 309 304 301 300 298 298 296 294 293 292 290 286 283 276 267 264 263 264 264 265 266 265
336 337 351 122 37 358 332 317 13 357 339 332 329 320 313 326 333 322 314 312 311 308 304 301 298 297 295 294 294 292 292 289 289 287 284 280 276 270 267 265 265 265 266 261
339 330 336 56 8 343 320 298 11 347 335 330 325 318 319 325 319 314 314 310 304 302 298 295 295 296 295 294 293 291 291 290 288 284 281 278 276 275 274 269 266 265 262 260
339 323 29 24 351 345 330 327 336 331 327 324 320 314 313 315 315 312 309 306 303 300 297 294 293 292 292 293 290 290 290 288 285 281 279 276 271 268 266 265 265 265 266 267
336 326 4 0 350 350 323 323 327 326 323 319 316 314 314 313 312 310 309 307 307 303 298 296 297 298 295 292 292 292 289 286 282 278 276 275 269 267 265 260 260 262 259 257
329 312 333 354 348 342 337 330 327 323 320 319 317 316 315 314 312 311 311 310 311 310 309 308 308 304 298 297 297 293 287 283 280 278 273 269 266 265 263 254 252 255 254 248
310 314 343 344 344 340 336 328 323 322 321 319 317 316 316 315 315 315 316 319 320 319 315 312 311 306 299 297 293 287 282 280 278 275 270 264 257 254 253 248 246 248 252 255
308 340 339 335 338 334 328 327 324 323 321 320 318 318 319 319 321 323 324 325 325 320 315 311 308 302 297 293 289 284 281 278 276 271 265 261 255 248 245 242 239 242 246 244
322 337 323 323 331 329 328 326 327 325 323 323 323 323 325 325 327 328 327 326 322 317 312 308 305 300 295 291 285 282 281 278 272 266 262 255 251 251 234 228 219 204 198 188
323 329 324 323 325 329 327 328 328 327 326 327 328 329 330 330 331 329 326 324 320 316 312 308 305 301 296 290 284 281 278 274 269 264 258 250 242 235 231 215 193 183 185 169
334 331 324 324 328 329 330 329 329 328 329 331 332 334 335 333 331 328 326 323 319 316 314 312 309 306 303 296 287 282 278 272 264 257 251 243 235 226 218 207 193 187 164 148
336 329 322 327 329 331 332 332 332 332 334 336 337 338 337 335 332 328 325 323 322 320 321 321 319 317 315 308 298 290 283 275 266 253 238 229 224 218 214 206 195 175 148 135
324 324 329 331 333 332 334 336 335 335 337 338 340 339 338 335 330 327 327 328 329 329 329 329 329 328 327 325 317 306 296 284 273 254 228 219 214 210 194 180 174 165 156 149
326 329 334 334 333 334 335 336 336 337 338 339 340 339 338 335 333 332 332 333 332 332 335 337 340 339 341 344 341 337 343 2 218 223 200 187 184 183 171 165 161 158 153 150
324 329 334 334 333 333 334 336 338 339 339 340 341 341 339 338 336 334 334 334 336 341 347 348 348 346 355 1 350 350 5 30 70 96 111 117 129 143 151 150 146 139 135 143
324 330 337 339 336 335 335 336 339 339 340 345 345 341 338 338 337 335 335 337 343 348 347 345 341 351 4 7 351 352 17 40 66 81 95 110 118 127 137 138 137 139 142 149
324 334 340 338 338 338 337 339 338 339 345 349 344 341 340 341 339 339 339 341 346 346 338 336 339 352 4 359 344 356 24 36 60 89 108 117 115 127 136 138 140 140 142 150
326 335 339 336 336 338 340 338 337 343 348 349 346 344 342 341 342 342 342 344 344 343 340 333 346 357 357 343 329 3 27 37 49 65 81 95 106 118 123 126 133 137 144 151
328 333 333 333 333 336 336 337 342 346 349 348 348 347 345 345 344 343 344 344 340 338 343 350 353 348 340 331 342 7 15 27 40 53 65 77 99 112 122 132 138 144 147 153
324 328 329 329 330 328 331 341 346 350 349 348 350 350 348 345 344 344 342 339 341 337 343 352 343 338 333 330 340 354 4 9 14 30 55 72 91 113 129 137 141 151 155 158
311 320 322 323 324 324 336 343 347 349 349 351 354 355 352 348 347 347 339 334 341 339 346 345 343 343 336 340 347 354 360 1 5 24 54 91 117 130 138 143 148 155 161 163
298 306 306 318 319 330 336 342 345 349 352 355 354 357 358 356 351 344 341 343 347 347 349 347 347 346 353 355 355 0 9 12 359 354 27 65 110 128 135 142 151 155 159 159
266 276 291 294 304 331 342 345 343 350 354 356 354 356 356 357 355 351 348 350 353 352 353 353 353 354 2 3 6 10 15 12 358 358 20 59 117 132 143 154 155 154 153 156
244 251 246 281 350 1 346 341 344 352 3 0 353 357 358 358 357 354 355 357 357 358 357 357 358 360 5 7 9 13 15 14 6 2 1 6 64 120 138 148 148 149 150 151
Height
1483 1474 1471 1474 1478 1481 1487 1493 1497 1496 1495 1494 1497 1500 1500 1499 1497 1495 1492 1488 1485 1482 1480 1478 1475 1472 1469 1466 1463 1460 1457 1454 1451 1449 1446 1444 1442 1440 1438 1436 1434 1434 1433 1433
1486 1476 1474 1480 1487 1491 1493 1495 1497 1497 1495 1493 1496 1498 1498 1497 1494 1491 1486 1483 1481 1479 1476 1473 1469 1466 1463 1459 1456 1454 1450 1447 1445 1442 1440 1437 1435 1434 1432 1430 1428 1427 1426 1426
1493 1478 1477 1494 1500 1501 1501 1500 1500 1500 1497 1495 1497 1498 1496 1493 1490 1485 1482 1480 1477 1474 1470 1467 1463 1459 1455 1452 1449 1446 1442 1440 1437 1435 1432 1430 1429 1427 1425 1424 1423 1421 1420 1419
1491 1485 1500 1510 1502 1503 1504 1500 1498 1497 1499 1500 1499 1497 1494 1491 1485 1481 1479 1475 1471 1467 1463 1459 1455 1451 1447 1444 1441 1437 1434 1431 1429 1427 1424 1423 1421 1420 1419 1418 1417 1416 1415 1414
1495 1497 1498 1504 1504 1505 1506 1502 1502 1503 1502 1500 1497 1493 1489 1486 1483 1480 1475 1470 1465 1460 1455 1451 1447 1443 1439 1435 1432 1429 1426 1423 1420 1418 1416 1414 1412 1412 1411 1410 1410 1409 1408 1408
1499 1507 1506 1511 1506 1505 1504 1499 1503 1503 1501 1498 1494 1487 1482 1482 1479 1473 1468 1464 1458 1452 1447 1442 1437 1434 1429 1425 1422 1419 1416 1413 1411 1409 1406 1405 1403 1403 1403 1403 1402 1402 1401 1402
1504 1506 1500 1509 1507 1507 1510 1509 1505 1504 1500 1497 1493 1489 1482 1476 1471 1466 1460 1455 1449 1443 1437 1432 1428 1423 1418 1415 1412 1409 1406 1403 1400 1398 1396 1395 1394 1393 1394 1394 1394 1394 1394 1394
1509 1511 1513 1509 1508 1512 1514 1509 1506 1502 1499 1494 1489 1483 1477 1471 1464 1458 1451 1445 1440 1433 1427 1422 1418 1413 1407 1403 1400 1397 1394 1391 1389 1387 1385 1385 1384 1384 1384 1385 1386 1386 1386 1386
1515 1517 1511 1510 1512 1512 1510 1507 1504 1500 1495 1490 1483 1477 1470 1463 1457 1450 1443 1436 1430 1424 1417 1412 1407 1402 1396 1391 1388 1384 1381 1379 1377 1375 1375 1374 1374 1375 1375 1377 1378 1378 1380 1380
1512 1509 1510 1511 1511 1510 1509 1506 1501 1497 1491 1486 1479 1471 1464 1456 1449 1442 1436 1429 1422 1414 1407 1400 1395 1389 1383 1378 1374 1371 1368 1366 1365 1365 1364 1364 1365 1366 1367 1368 1370 1372 1373 1375
1511 1510 1512 1510 1511 1509 1506 1502 1498 1493 1488 1482 1474 1466 1459 1451 1443 1436 1429 1422 1414 1406 1397 1388 1381 1375 1370 1365 1361 1358 1356 1355 1355 1355 1355 1355 1356 1357 1359 1361 1363 1366 1368 1370
1515 1515 1514 1511 1509 1506 1502 1498 1493 1488 1482 1477 1470 1462 1454 1447 1439 1431 1423 1414 1405 1396 1386 1377 1369 1362 1357 1353 1350 1348 1346 1345 1345 1345 1346 1347 1348 1350 1351 1354 1357 1360 1363 1365
1515 1514 1512 1510 1507 1504 1500 1495 1490 1485 1478 1471 1465 1458 1451 1443 1435 1426 1417 1407 1397 1386 1376 1367 1359 1352 1346 1343 1341 1339 1338 1337 1337 1338 1339 1340 1342 1344 1346 1349 1352 1355 1358 1361
1513 1512 1510 1507 1504 1501 1497 1492 1487 1481 1475 1469 1462 1455 1447 1439 1430 1421 1411 1400 1390 1379 1369 1360 1352 1345 1340 1336 1334 1332 1331 1330 1331 1332 1333 1335 1337 1339 1342 1345 1348 1351 1354 1358
1511 1510 1508 1505 1502 1498 1494 1489 1483 1477 1471 1465 1459 1452 1444 1435 1426 1416 1405 1394 1384 1373 1364 1355 1347 1341 1336 1332 1329 1327 1326 1326 1327 1328 1329 1331 1334 1337 1339 1342 1345 1349 1352 1355
1509 1507 1505 1502 1499 1495 1490 1485 1480 1474 1468 1462 1455 1449 1441 1433 1423 1412 1401 1390 1380 1370 1361 1353 1346 1340 1335 1331 1328 1326 1325 1324 1325 1326 1328 1330 1333 1335 1338 1341 1344 1348 1351 1353
1506 1504 1502 1499 1496 1492 1488 1484 1478 1473 1467 1460 1453 1446 1438 1429 1419 1408 1398 1388 1379 1370 1362 1355 1348 1342 1337 1333 1330 1328 1327 1326 1326 1328 1330 1331 1333 1335 1338 1341 1344 1347 1350 1352
1504 1503 1500 1498 1494 1490 1486 1481 1477 1471 1465 1459 1452 1444 1435 1426 1417 1406 1397 1387 1379 1371 1364 1357 1351 1346 1341 1337 1334 1332 1331 1330 1330 1331 1332 1333 1335 1337 1340 1342 1345 1347 1350 1353
1502 1500 1498 1495 1492 1488 1484 1479 1474 1469 1464 1457 1450 1442 1435 1426 1417 1407 1397 1388 1380 1373 1366 1361 1355 1351 1347 1343 1339 1337 1336 1335 1335 1335 1336 1337 1338 1340 1342 1344 1347 1349 1351 1354
1499 1497 1495 1492 1489 1486 1482 1477 1473 1468 1462 1456 1449 1441 1433 1425 1416 1407 1398 1391 1384 1377 1370 1365 1360 1356 1352 1348 1344 1343 1341 1340 1340 1340 1340 1341 1342 1343 1345 1347 1348 1351 1353 1355
1496 1494 1492 1489 1486 1483 1480 1475 1471 1466 1460 1454 1448 1441 1433 1425 1417 1409 1400 1392 1386 1379 1373 1368 1363 1359 1356 1352 1349 1348 1346 1345 1344 1344 1344 1345 1345 1346 1348 1349 1351 1353 1355 1358
1493 1491 1489 1487 1484 1480 1477 1474 1469 1465 1459 1453 1447 1441 1433 1425 1417 1409 1404 1397 1389 1382 1376 1371 1367 1363 1359 1356 1354 1352 1350 1348 1347 1347 1347 1347 1348 1349 1350 1351 1353 1355 1357 1360
1490 1489 1487 1484 1481 1478 1475 1472 1468 1463 1458 1453 1447 1441 1434 1427 1420 1413 1405 1399 1392 1386 1380 1376 1371 1366 1362 1359 1357 1355 1353 1351 1350 1349 1349 1349 1349 1350 1351 1353 1355 1357 1360 1364
1487 1486 1484 1482 1479 1476 1473 1470 1466 1462 1458 1453 1448 1441 1435 1427 1420 1415 1408 1402 1396 1390 1385 1380 1375 1370 1366 1363 1360 1358 1356 1354 1353 1352 1351 1351 1351 1352 1353 1355 1357 1360 1363 1367
1484 1482 1481 1479 1477 1474 1471 1468 1465 1461 1457 1452 1447 1441 1436 1429 1423 1416 1410 1404 1398 1393 1389 1384 1380 1375 1371 1367 1364 1362 1360 1358 1356 1355 1354 1354 1354 1355 1356 1358 1361 1364 1367 1370
1480 1479 1478 1476 1474 1472 1470 1467 1464 1460 1456 1452 1447 1441 1436 1430 1424 1417 1411 1406 1401 1396 1392 1388 1384 1380 1377 1373 1370 1367 1365 1363 1361 1360 1359 1359 1359 1360 1361 1363 1365 1368 1371 1374
1476 1475 1474 1474 1472 1470 1468 1466 1463 1460 1456 1452 1447 1442 1436 1430 1424 1419 1413 1408 1404 1399 1395 1392 1389 1386 1382 1379 1376 1373 1371 1369 1367 1366 1365 1366 1366 1366 1367 1369 1371 1373 1375 1378